1508648401.25,21154,11.44,73478.8,-1.45,-21.33,-22.31,0,*52
1508648402.51,21155,11.44,73478.5,-1.47,-21.27,-22.83,0,*5D
1508648403.77,21156,11.44,73476.3,-1.47,-21.43,-23.33,0,*56
1508648405.03,21157,11.44,73480.3,-1.47,-21.73,-23.65,0,*57
1508648406.3,21158,11.44,73482.0,-1.49,-21.83,-23.95,0,*56
1508648407.56,21159,11.44,73478.0,-1.49,-22.17,-24.05,0,*57
1508648408.82,21160,11.44,73472.8,-1.47,-22.47,-23.89,0,*55
1508648410.04,21161,11.44,73476.5,-1.49,-22.63,-23.79,0,*53
1508648411.28,21162,11.44,73472.8,-1.47,-22.83,-23.79,0,*50
1508648412.51,21163,11.44,73470.8,-1.47,-22.97,-23.79,0,*54
1508648413.77,21164,11.44,73470.3,-1.49,-23.19,-23.89,0,*55
1508648415.02,21165,11.44,73472.3,-1.47,-23.33,-23.79,0,*5D
1508648416.27,21166,11.44,73472.3,-1.49,-23.29,-23.89,0,*54
1508648417.53,21167,11.44,73482.8,-1.49,-23.33,-23.89,0,*5E
1508648418.81,21168,11.44,73480.8,-1.49,-22.77,-23.33,0,*51
1508648420.07,21169,11.44,73476.8,-1.47,-22.63,-23.33,0,*5B
1508648421.29,21170,11.44,73474.0,-1.49,-22.63,-23.59,0,*51
1508648422.55,21171,11.44,73478.0,-1.49,-22.77,-23.79,0,*57
1508648423.8,21172,11.44,73478.5,-1.49,-23.13,-24.25,0,*59
1508648425.08,21173,11.44,73474.8,-1.47,-23.29,-24.15,0,*5C
1508648426.34,21174,11.44,73470.3,-1.49,-23.19,-24.05,0,*57
1508648427.59,21175,11.44,73472.5,-1.49,-23.13,-23.95,0,*52
1508648428.85,21176,11.44,73472.5,-1.47,-23.03,-24.05,0,*50
1508648430.12,21177,11.44,73476.5,-1.49,-23.03,-24.15,0,*5E
1508648431.36,21178,11.44,73476.5,-1.47,-23.13,-24.05,0,*5F
1508648432.62,21179,11.44,73478.5,-1.47,-23.29,-24.05,0,*57
1508648433.91,21180,11.44,73486.3,-1.47,-23.19,-23.49,0,*5D
1508648435.14,21181,11.44,73476.0,-1.43,-22.57,-22.87,0,*50
1508648436.39,21182,11.44,73476.8,-1.43,-22.57,-22.93,0,*56
1508648437.66,21183,11.44,73478.3,-1.43,-22.93,-23.23,0,*55
1508648438.86,21184,11.44,73480.8,-1.41,-22.67,-22.83,0,*50
1508648440.09,21185,11.44,73480.5,-1.43,-22.41,-21.77,0,*5F
1508648441.33,21186,11.44,73474.8,-1.41,-22.53,-20.83,0,*57
1508648442.59,21187,11.44,73474.3,-1.43,-22.11,-19.85,0,*5E
1508648443.82,21188,11.44,73470.8,-1.39,-21.13,-18.73,0,*55
1508648445.05,21189,11.44,73472.8,-1.41,-20.05,-17.45,0,*57
1508648446.26,21190,11.44,73474.8,-1.41,-18.41,-16.75,0,*56
1508648447.47,21191,11.44,73474.0,-1.41,-17.31,-16.75,0,*5F
1508648448.73,21192,11.44,73474.0,-1.39,-16.37,-17.03,0,*54
1508648449.98,21193,11.44,73476.5,-1.41,-16.17,-17.17,0,*5D
1508648451.2,21194,11.44,73478.3,-1.41,-16.75,-18.11,0,*57
1508648452.48,21195,11.44,73472.8,-1.39,-17.41,-18.89,0,*5E
1508648453.71,21196,11.44,73474.8,-1.39,-18.79,-19.37,0,*5D
1508648455.0,21197,11.44,73478.3,-1.39,-19.57,-19.65,0,*56
1508648456.23,21198,11.44,73474.8,-1.41,-20.05,-20.35,0,*54
1508648457.45,21199,11.44,73476.3,-1.39,-20.05,-21.09,0,*54
1508648458.73,21200,11.44,73472.0,-1.39,-20.35,-21.67,0,*5C
1508648459.95,21201,11.44,73474.3,-1.39,-20.73,-22.07,0,*5A
1508648461.19,21202,11.44,73476.3,-1.41,-20.99,-22.53,0,*53
1508648462.45,21203,11.44,73474.3,-1.39,-20.99,-22.83,0,*50
1508648463.7,21204,11.44,73478.8,-1.39,-21.43,-23.19,0,*53
1508648464.98,21205,11.44,73474.5,-1.39,-21.83,-23.49,0,*5B
1508648466.24,21206,11.44,73476.3,-1.41,-22.21,-23.99,0,*51
1508648467.5,21207,11.44,73476.5,-1.39,-22.53,-24.25,0,*5A
1508648468.74,21208,11.44,73476.5,-1.41,-22.77,-24.47,0,*58
1508648469.97,21209,11.44,73480.8,-1.41,-23.19,-24.61,0,*54
1508648471.17,21210,11.44,73482.8,-1.41,-23.39,-24.93,0,*53
1508648472.37,21211,11.44,73480.0,-1.41,-23.79,-24.97,0,*52
1508648473.6,21212,11.44,73480.8,-1.41,-23.85,-24.93,0,*56
1508648474.86,21213,11.44,73480.8,-1.41,-23.85,-24.83,0,*56
1508648476.11,21214,11.44,73482.8,-1.39,-23.95,-24.61,0,*53
1508648477.35,21215,11.44,73482.3,-1.41,-23.99,-24.77,0,*56
1508648478.6,21216,11.44,73482.5,-1.41,-23.95,-24.67,0,*58
1508648479.86,21217,11.44,73482.3,-1.43,-23.99,-24.77,0,*56
1508648481.13,21218,11.44,73482.3,-1.43,-23.99,-24.51,0,*5D
1508648482.36,21219,11.44,73482.0,-1.41,-23.95,-24.51,0,*52
1508648483.56,21220,11.44,73480.0,-1.41,-23.79,-24.31,0,*5C
1508648484.79,21221,11.44,73482.8,-1.41,-23.53,-24.35,0,*51
1508648486.07,21222,11.44,73486.5,-1.43,-23.19,-24.15,0,*5C
1508648487.35,21223,11.44,73484.5,-1.43,-23.33,-24.15,0,*55
1508648488.58,21224,11.44,73482.5,-1.41,-23.19,-23.79,0,*55
1508648489.84,21225,11.44,73478.3,-1.39,-23.03,-23.75,0,*5C
1508648491.07,21226,11.44,73476.3,-1.41,-23.03,-23.79,0,*5C
1508648492.33,21227,11.44,73480.8,-1.39,-23.13,-23.49,0,*50
1508648493.56,21228,11.44,73478.3,-1.39,-23.13,-23.13,0,*50
1508648494.82,21229,11.44,73482.0,-1.39,-22.97,-23.03,0,*5D
1508648496.05,21230,11.44,73478.8,-1.41,-22.83,-23.49,0,*51
1508648497.33,21231,11.44,73478.0,-1.39,-22.77,-23.95,0,*55
1508648498.61,21232,11.44,73468.3,-1.39,-23.03,-24.15,0,*5B
1508648499.87,21233,11.44,73474.8,-1.41,-23.33,-24.21,0,*51
1508648501.12,21234,11.44,73472.3,-1.41,-23.33,-23.99,0,*52
1508648502.4,21235,11.44,73476.5,-1.39,-23.49,-23.95,0,*5D
1508648503.64,21236,11.44,73482.0,-1.41,-23.65,-23.95,0,*5F
1508648504.88,21237,11.44,73480.3,-1.41,-23.53,-23.79,0,*59
1508648506.13,21238,11.44,73480.3,-1.41,-23.33,-23.69,0,*51
1508648507.32,21239,11.44,73482.3,-1.41,-23.39,-24.05,0,*57
1508648508.58,21240,11.44,73484.8,-1.39,-23.03,-23.59,0,*51
1508648509.81,21241,11.44,73476.5,-1.41,-23.09,-23.65,0,*5A
1508648511.07,21242,11.44,73478.5,-1.39,-23.03,-23.59,0,*53
1508648512.3,21243,11.44,73472.5,-1.39,-22.97,-23.75,0,*50
1508648513.56,21244,11.44,73474.3,-1.39,-23.03,-23.89,0,*58
1508648514.84,21245,11.44,73472.0,-1.39,-23.29,-23.99,0,*50
1508648516.09,21246,11.44,73476.8,-1.39,-23.43,-24.11,0,*58
1508648517.36,21247,11.44,73476.5,-1.39,-23.75,-24.25,0,*5B
1508648518.61,21248,11.44,73476.0,-1.39,-23.89,-24.41,0,*55
1508648519.87,21249,11.44,73478.0,-1.39,-23.79,-24.41,0,*5B
1508648521.13,21250,11.44,73476.5,-1.39,-23.79,-24.41,0,*53
1508648522.37,21251,11.44,73476.5,-1.39,-23.75,-24.31,0,*59
1508648523.6,21252,11.44,73482.5,-1.39,-23.79,-24.57,0,*56
1508648524.83,21253,11.44,73476.0,-1.39,-23.89,-24.61,0,*5D
1508648526.06,21254,11.44,73478.0,-1.39,-23.79,-24.57,0,*50
1508648527.3,21255,11.44,73472.5,-1.39,-23.79,-24.47,0,*50
1508648528.53,21256,11.44,73482.0,-1.39,-23.79,-24.47,0,*53
1508648529.77,21257,11.44,73484.3,-1.39,-23.75,-24.47,0,*5E
1508648531.02,21258,11.44,73480.3,-1.39,-23.59,-24.15,0,*58
1508648532.26,21259,11.44,73480.0,-1.39,-23.79,-24.31,0,*5D
1508648533.49,21260,11.44,73480.5,-1.39,-23.89,-24.31,0,*58
1508648534.74,21261,11.44,73476.3,-1.39,-23.79,-24.15,0,*50
1508648535.99,21262,11.44,73474.0,-1.39,-23.89,-24.15,0,*5C
1508648537.25,21263,11.44,73474.0,-1.39,-23.59,-23.99,0,*53
1508648538.5,21264,11.44,73472.0,-1.39,-23.59,-23.95,0,*58
1508648539.75,21265,11.44,73468.8,-1.39,-23.59,-23.99,0,*55
1508648541.01,21266,11.44,73472.5,-1.39,-23.59,-24.11,0,*51
1508648542.29,21267,11.44,73470.8,-1.39,-23.65,-24.25,0,*58
1508648543.55,21268,11.44,73472.3,-1.39,-23.79,-24.41,0,*58
1508648544.79,21269,11.44,73470.5,-1.39,-23.75,-24.31,0,*52
1508648546.03,21270,11.44,73470.5,-1.35,-23.69,-24.35,0,*5F
1508648547.28,21271,11.44,73468.3,-1.35,-23.69,-24.35,0,*5E
1508648548.54,21272,11.44,73462.8,-1.39,-23.79,-24.41,0,*53
1508648549.77,21273,11.44,73468.3,-1.39,-23.89,-24.47,0,*5B
1508648551.03,21274,11.44,73474.3,-1.35,-23.85,-24.51,0,*5B
1508648552.31,21275,11.44,73474.0,-1.39,-23.95,-24.71,0,*55
1508648553.54,21276,11.44,73470.5,-1.35,-23.89,-24.57,0,*53
1508648554.79,21277,11.44,73470.0,-1.35,-23.89,-24.67,0,*51
1508648556.06,21278,11.44,73470.8,-1.35,-24.05,-24.71,0,*5A
1508648557.31,21279,11.44,73472.3,-1.35,-23.95,-24.57,0,*51
1508648558.57,21280,11.44,73472.3,-1.39,-23.95,-24.61,0,*5E
1508648559.81,21281,11.44,73472.3,-1.39,-23.75,-24.57,0,*54
1508648561.04,21282,11.44,73474.5,-1.39,-23.89,-24.57,0,*54
1508648562.32,21283,11.44,73472.8,-1.39,-23.95,-24.71,0,*5C
1508648563.58,21284,11.44,73474.5,-1.31,-24.05,-24.71,0,*5D
1508648564.87,21285,11.44,73476.5,-1.35,-24.11,-24.83,0,*50
1508648566.13,21286,11.44,73474.3,-1.39,-24.25,-24.93,0,*59
1508648567.39,21287,11.44,73474.3,-1.35,-24.21,-24.93,0,*50
1508648568.68,21288,11.44,73472.8,-1.35,-24.21,-24.87,0,*5A
1508648569.96,21289,11.44,73474.5,-1.35,-24.11,-24.87,0,*58
1508648571.23,21290,11.44,73472.3,-1.39,-24.25,-24.97,0,*5A
1508648572.49,21291,11.44,73468.5,-1.39,-24.41,-24.97,0,*59
1508648573.73,21292,11.44,73472.5,-1.39,-24.31,-24.97,0,*5D
1508648575.01,21293,11.44,73474.3,-1.39,-24.41,-25.03,0,*57
1508648576.28,21294,11.44,73470.3,-1.39,-24.41,-25.09,0,*5A
1508648577.55,21295,11.44,73476.0,-1.39,-24.41,-25.09,0,*5B
1508648578.79,21296,11.44,73478.8,-1.39,-24.31,-24.97,0,*59
1508648580.0,21297,11.44,73476.0,-1.41,-24.47,-24.97,0,*56
1508648581.22,21298,11.44,73478.5,-1.41,-24.47,-25.13,0,*54
1508648582.43,21299,11.44,73476.8,-1.41,-24.61,-25.13,0,*51
1508648583.66,21300,11.44,73482.0,-1.41,-24.51,-25.03,0,*52
1508648584.93,21301,11.44,73482.0,-1.39,-24.41,-24.97,0,*51
1508648586.16,21302,11.44,73486.0,-1.41,-24.47,-25.03,0,*57
1508648587.4,21303,11.44,73482.8,-1.41,-24.47,-25.03,0,*56
1508648588.62,21304,11.44,73486.5,-1.41,-24.47,-24.97,0,*5D
1508648589.83,21305,11.44,73480.8,-1.41,-24.31,-24.93,0,*59
1508648591.04,21306,11.44,73482.0,-1.41,-24.31,-24.93,0,*5A
1508648592.27,21307,11.44,73476.8,-1.41,-24.35,-24.83,0,*5E
1508648593.48,21308,11.44,73478.0,-1.41,-24.31,-24.93,0,*54
1508648594.75,21309,11.44,73474.5,-1.43,-24.35,-25.03,0,*5B
1508648596.01,21310,11.44,73478.0,-1.43,-24.35,-25.03,0,*53
1508648597.28,21311,11.44,73478.5,-1.43,-24.47,-25.03,0,*57
1508648598.55,21312,11.44,73474.5,-1.43,-24.51,-25.03,0,*53
1508648599.82,21313,11.44,73474.0,-1.43,-24.47,-25.03,0,*55
1508648601.06,21314,11.44,73480.8,-1.45,-24.41,-25.09,0,*58
1508648602.33,21315,11.44,73476.0,-1.43,-24.47,-25.03,0,*53
1508648603.59,21316,11.44,73476.0,-1.43,-24.61,-25.03,0,*54
1508648604.83,21317,11.44,73478.8,-1.43,-24.51,-24.97,0,*5A
1508648606.06,21318,11.44,73478.8,-1.45,-24.51,-25.09,0,*55
1508648607.32,21319,11.44,73484.3,-1.43,-24.47,-25.03,0,*5F
1508648608.57,21320,11.44,73484.3,-1.45,-24.51,-25.03,0,*54
1508648609.81,21321,11.44,73484.8,-1.45,-24.35,-24.87,0,*5A
1508648611.08,21322,11.44,73486.3,-1.45,-24.25,-24.87,0,*58
1508648612.29,21323,11.44,73480.3,-1.45,-24.35,-24.97,0,*59
1508648613.54,21324,11.44,73480.5,-1.45,-24.25,-24.97,0,*5F
1508648614.78,21325,11.44,73476.5,-1.45,-24.25,-24.97,0,*5E
1508648615.99,21326,11.44,73480.5,-1.45,-23.79,-24.47,0,*5E
1508648617.23,21327,11.44,73480.3,-1.45,-23.99,-24.51,0,*56
1508648618.47,21328,11.44,73480.8,-1.45,-23.99,-24.51,0,*59
1508648619.73,21329,11.44,73482.5,-1.43,-23.85,-24.47,0,*54
1508648620.96,21330,11.44,73480.5,-1.45,-23.85,-24.51,0,*5D
1508648622.23,21331,11.44,73476.5,-1.45,-23.99,-24.41,0,*50
1508648623.49,21332,11.44,73478.5,-1.43,-23.99,-24.61,0,*57
1508648624.77,21333,11.44,73476.5,-1.43,-23.99,-24.67,0,*50
1508648626.04,21334,11.44,73476.0,-1.45,-24.21,-24.87,0,*5B
1508648627.25,21335,11.44,73474.3,-1.45,-24.35,-24.97,0,*5E
1508648628.47,21336,11.44,73482.0,-1.45,-24.35,-24.97,0,*5D
1508648629.73,21337,11.44,73480.5,-1.43,-24.15,-24.77,0,*56
1508648630.94,21338,11.44,73480.0,-1.45,-23.89,-24.31,0,*5F
1508648632.2,21339,11.44,73476.3,-1.43,-23.79,-24.21,0,*56
1508648633.46,21340,11.44,73478.5,-1.43,-23.85,-24.31,0,*5A
1508648634.68,21341,11.44,73478.5,-1.45,-24.05,-24.57,0,*52
1508648635.91,21342,11.44,73476.3,-1.45,-23.99,-24.51,0,*55
1508648637.17,21343,11.44,73476.5,-1.43,-23.85,-24.35,0,*5D
1508648638.43,21344,11.44,73478.0,-1.43,-23.85,-24.47,0,*5F
1508648639.69,21345,11.44,73474.5,-1.43,-23.85,-24.47,0,*5E
1508648640.9,21346,11.44,73474.3,-1.45,-24.05,-24.51,0,*53
1508648642.16,21347,11.44,73484.8,-1.43,-24.15,-24.51,0,*55
1508648643.44,21348,11.44,73482.5,-1.43,-23.49,-23.99,0,*57
1508648644.71,21349,11.44,73472.5,-1.43,-22.93,-23.49,0,*5D
1508648645.99,21350,11.44,73476.3,-1.43,-23.03,-23.65,0,*53
1508648647.23,21351,11.44,73478.0,-1.41,-23.09,-23.85,0,*54
1508648648.45,21352,11.44,73476.5,-1.41,-22.87,-23.65,0,*5E
1508648649.72,21353,11.44,73476.5,-1.39,-22.77,-23.43,0,*5B
1508648650.94,21354,11.44,73478.8,-1.41,-23.19,-23.39,0,*57
1508648652.18,21355,11.44,73478.3,-1.35,-22.93,-22.83,0,*56
1508648653.42,21356,11.44,73478.5,-1.31,-22.93,-23.09,0,*52
1508648654.7,21357,11.44,73474.3,-1.31,-22.73,-23.23,0,*55
1508648655.94,21358,11.44,73472.3,-1.29,-22.53,-23.23,0,*51
1508648657.16,21359,11.44,73470.8,-1.29,-22.87,-23.49,0,*55
1508648658.4,21360,11.44,73456.8,-1.29,-23.09,-23.85,0,*58
1508648659.69,21361,11.44,73460.5,-1.27,-23.49,-24.21,0,*5A
1508648660.93,21362,11.44,73466.8,-1.27,-23.69,-24.31,0,*5A
1508648662.17,21363,11.44,73468.3,-1.27,-23.79,-24.47,0,*5B
1508648663.42,21364,11.44,73468.3,-1.27,-23.69,-24.31,0,*5C
1508648664.7,21365,11.44,73474.0,-1.27,-23.49,-24.21,0,*5E
1508648665.95,21366,11.44,73476.3,-1.29,-23.23,-23.99,0,*5B
1508648667.2,21367,11.44,73472.3,-1.27,-23.23,-23.89,0,*55
1508648668.44,21368,11.44,73474.8,-1.27,-23.09,-23.79,0,*5D
1508648669.72,21369,11.44,73476.8,-1.27,-23.03,-23.65,0,*5B
1508648670.99,21370,11.44,73476.8,-1.27,-23.19,-23.69,0,*54
1508648672.25,21371,11.44,73480.3,-1.27,-23.23,-23.89,0,*52
1508648673.49,21372,11.44,73480.3,-1.25,-23.29,-23.95,0,*54
1508648674.73,21373,11.44,73468.3,-1.25,-23.33,-23.95,0,*5E
1508648675.99,21374,11.44,73478.0,-1.23,-23.03,-23.79,0,*5E
1508648677.24,21375,11.44,73472.3,-1.25,-23.29,-23.85,0,*52
1508648678.52,21376,11.44,73476.8,-1.23,-23.33,-24.11,0,*56
1508648679.8,21377,11.44,73474.8,-1.23,-23.49,-24.25,0,*5D
1508648681.05,21378,11.44,73474.5,-1.25,-23.33,-24.15,0,*5A
1508648682.28,21379,11.44,73476.0,-1.23,-23.13,-23.79,0,*52
1508648683.55,21380,11.44,73472.5,-1.23,-23.19,-23.95,0,*5C
1508648684.84,21381,11.44,73474.8,-1.23,-23.33,-24.25,0,*59
1508648686.12,21382,11.44,73470.0,-1.23,-23.65,-24.41,0,*5B
1508648687.35,21383,11.44,73470.0,-1.23,-23.75,-24.31,0,*5C
1508648688.61,21384,11.44,73468.5,-1.23,-23.65,-24.31,0,*5A
1508648689.87,21385,11.44,73470.3,-1.23,-23.79,-24.41,0,*51
1508648691.12,21386,11.44,73470.8,-1.23,-23.79,-24.41,0,*52
1508648692.35,21387,11.44,73470.8,-1.25,-23.79,-24.41,0,*55
1508648693.61,21388,11.44,73470.8,-1.23,-23.85,-24.61,0,*5D
1508648694.87,21389,11.44,73474.8,-1.23,-23.85,-24.61,0,*5C
1508648696.09,21390,11.44,73476.3,-1.25,-23.95,-24.57,0,*56
1508648697.35,21391,11.44,73476.3,-1.23,-23.85,-24.57,0,*50
1508648698.57,21392,11.44,73478.5,-1.25,-23.99,-24.57,0,*58
1508648699.8,21393,11.44,73476.8,-1.25,-23.95,-24.61,0,*50
1508648701.06,21394,11.44,73480.3,-1.23,-23.85,-24.47,0,*54
1508648702.27,21395,11.44,73480.3,-1.25,-23.75,-24.31,0,*5D
1508648703.47,21396,11.44,73470.3,-1.25,-23.75,-24.31,0,*5E
1508648704.7,21397,11.44,73470.0,-1.25,-23.75,-24.41,0,*58
1508648705.91,21398,11.44,73468.5,-1.25,-23.79,-24.57,0,*5C
1508648707.16,21399,11.44,73466.8,-1.25,-23.95,-24.71,0,*5B
1508648708.42,21400,11.44,73472.0,-1.25,-23.95,-24.71,0,*5C
1508648709.68,21401,11.44,73474.8,-1.23,-23.95,-24.61,0,*5A
1508648710.9,21402,11.44,73476.3,-1.25,-23.95,-24.57,0,*5A
1508648712.13,21403,11.44,73476.8,-1.25,-23.85,-24.47,0,*5B
1508648713.36,21404,11.44,73470.5,-1.25,-23.65,-24.31,0,*53
1508648714.56,21405,11.44,73474.3,-1.25,-23.79,-24.57,0,*5F
1508648715.78,21406,11.38,73468.3,-1.25,-23.95,-24.57,0,*5E
1508648717.01,21407,11.44,73474.3,-1.25,-23.85,-24.47,0,*5F
1508648718.24,21408,11.44,73472.0,-1.27,-23.89,-24.51,0,*59
1508648719.47,21409,11.44,73478.0,-1.29,-23.99,-24.61,0,*54
1508648720.68,21410,11.44,73480.0,-1.29,-23.89,-24.51,0,*5E
1508648721.9,21411,11.44,73476.0,-1.29,-23.69,-24.35,0,*53
1508648723.19,21412,11.44,73470.5,-1.27,-23.53,-24.21,0,*52
1508648724.41,21413,11.44,73478.5,-1.29,-23.65,-24.05,0,*5E
1508648725.67,21414,11.44,73480.5,-1.27,-23.49,-24.05,0,*59
1508648726.96,21415,11.44,73476.8,-1.27,-23.19,-23.85,0,*52
1508648728.2,21416,11.44,73476.8,-1.27,-22.87,-23.65,0,*59
1508648729.49,21417,11.44,73480.0,-1.27,-23.03,-23.85,0,*5B
1508648730.74,21418,11.44,73476.5,-1.25,-23.03,-23.85,0,*56
1508648731.95,21419,11.44,73478.3,-1.25,-22.97,-23.75,0,*54
1508648733.18,21420,11.44,73478.0,-1.23,-22.83,-23.43,0,*58
1508648734.43,21421,11.44,73476.0,-1.23,-22.87,-23.65,0,*59
1508648735.69,21422,11.44,73472.5,-1.23,-22.97,-23.65,0,*5B
1508648736.92,21423,11.44,73470.3,-1.23,-22.97,-23.79,0,*57
1508648738.12,21424,11.44,73468.0,-1.21,-23.13,-23.79,0,*5F
1508648739.35,21425,11.44,73476.5,-1.21,-23.29,-23.89,0,*58
1508648740.61,21426,11.44,73482.8,-1.23,-23.65,-24.31,0,*55
1508648741.88,21427,11.44,73474.8,-1.23,-23.33,-23.99,0,*52
1508648743.16,21428,11.44,73468.0,-1.23,-23.29,-23.99,0,*56
1508648744.44,21429,11.44,73472.5,-1.23,-23.29,-23.99,0,*57
1508648745.65,21430,11.44,73474.5,-1.21,-23.43,-24.05,0,*53
1508648746.88,21431,11.44,73474.8,-1.21,-23.59,-24.25,0,*5B
1508648748.09,21432,11.44,73478.0,-1.21,-23.75,-24.51,0,*55
1508648749.29,21433,11.44,73482.0,-1.21,-23.79,-24.57,0,*5E
1508648750.53,21434,11.44,73478.0,-1.23,-23.75,-24.31,0,*57
1508648751.77,21435,11.44,73478.3,-1.23,-23.75,-24.31,0,*56
1508648753.02,21436,11.44,73482.0,-1.23,-23.13,-23.95,0,*5C
1508648754.25,21437,11.44,73482.0,-1.23,-22.87,-23.75,0,*5F
1508648755.49,21438,11.44,73480.5,-1.23,-22.63,-23.29,0,*53
1508648756.7,21439,11.44,73476.3,-1.21,-22.63,-23.43,0,*5C
1508648757.93,21440,11.44,73476.0,-1.21,-22.83,-23.53,0,*5D
1508648759.2,21441,11.44,73476.3,-1.19,-22.77,-23.69,0,*55
1508648760.41,21442,11.44,73476.8,-1.21,-22.83,-23.43,0,*5E
1508648761.66,21443,11.44,73482.5,-1.19,-22.87,-23.49,0,*5A
1508648762.92,21444,11.44,73472.8,-1.19,-22.93,-23.85,0,*58
1508648764.2,21445,11.44,73466.5,-1.19,-23.19,-23.99,0,*57
1508648765.4,21446,11.44,73472.8,-1.15,-22.87,-23.59,0,*52
1508648766.6,21447,11.44,73472.5,-1.17,-22.63,-23.39,0,*5D
1508648767.82,21448,11.44,73474.0,-1.17,-22.93,-23.69,0,*58
1508648769.06,21449,11.44,73472.3,-1.15,-23.13,-23.99,0,*5D
1508648770.31,21450,11.44,73474.8,-1.15,-23.29,-24.11,0,*5B
1508648771.56,21451,11.44,73474.5,-1.17,-23.19,-24.15,0,*5F
1508648772.82,21452,11.44,73476.0,-1.15,-23.19,-24.11,0,*5A
1508648774.06,21453,11.44,73474.3,-1.17,-23.29,-24.15,0,*5E
1508648775.29,21454,11.44,73474.0,-1.17,-23.39,-24.21,0,*5F
1508648776.53,21455,11.44,73476.8,-1.15,-23.43,-24.25,0,*55
1508648777.78,21456,11.44,73474.8,-1.17,-23.65,-24.41,0,*52
1508648779.0,21457,11.44,73476.8,-1.17,-23.69,-24.61,0,*5D
1508648780.22,21458,11.44,73472.3,-1.17,-23.69,-24.47,0,*56
1508648781.46,21459,11.44,73462.8,-1.15,-23.43,-24.15,0,*5A
1508648782.68,21460,11.44,73468.8,-1.17,-23.69,-24.31,0,*5C
1508648783.9,21461,11.44,73474.3,-1.17,-23.65,-24.35,0,*55
1508648785.16,21462,11.44,73474.8,-1.15,-23.33,-23.99,0,*56
1508648786.38,21463,11.44,73472.3,-1.17,-23.09,-23.99,0,*5C
1508648787.62,21464,11.44,73474.5,-1.15,-23.09,-23.85,0,*54
1508648788.88,21465,11.44,73478.8,-1.15,-23.49,-24.11,0,*5B
1508648790.14,21466,11.44,73478.8,-1.17,-23.53,-24.21,0,*52
1508648791.36,21467,11.44,73476.8,-1.17,-23.03,-23.89,0,*53
1508648792.57,21468,11.44,73478.0,-1.17,-22.93,-23.75,0,*57
1508648793.82,21469,11.44,73480.8,-1.17,-22.73,-23.49,0,*57
1508648795.03,21470,11.44,73478.8,-1.15,-22.57,-23.59,0,*5A
1508648796.25,21471,11.44,73474.8,-1.17,-22.67,-23.65,0,*55
1508648797.46,21472,11.44,73476.5,-1.15,-22.83,-23.79,0,*53
1508648798.69,21473,11.44,73472.8,-1.15,-22.87,-23.69,0,*57
1508648799.9,21474,11.38,73472.8,-1.15,-22.83,-23.59,0,*57
1508648801.16,21475,11.44,73474.3,-1.13,-22.83,-23.49,0,*51
1508648802.41,21476,11.44,73476.0,-1.13,-22.87,-23.69,0,*54
1508648803.65,21477,11.44,73478.5,-1.11,-22.31,-23.09,0,*5C
1508648804.91,21478,11.44,73478.0,-1.11,-22.47,-23.29,0,*50
1508648806.16,21479,11.44,73472.8,-1.13,-22.67,-23.65,0,*59
1508648807.39,21480,11.44,73474.5,-1.11,-22.63,-23.29,0,*51
1508648808.6,21481,11.44,73474.5,-1.07,-22.63,-23.43,0,*5B
1508648809.84,21482,11.44,73468.3,-1.07,-22.57,-23.49,0,*55
1508648811.06,21483,11.44,73466.3,-1.07,-22.53,-23.39,0,*57
1508648812.32,21484,11.44,73472.8,-1.05,-22.93,-23.85,0,*59
1508648813.55,21485,11.44,73472.8,-1.07,-23.29,-24.05,0,*55
1508648814.76,21486,11.44,73470.0,-1.07,-22.63,-23.59,0,*57
1508648816.02,21487,11.44,73468.3,-1.05,-22.77,-23.75,0,*5F
1508648817.23,21488,11.44,73464.0,-1.07,-22.97,-23.89,0,*5F
1508648818.47,21489,11.44,73462.0,-1.05,-22.93,-23.75,0,*5B
1508648819.7,21490,11.44,73460.8,-1.07,-23.13,-24.11,0,*5D
1508648820.9,21491,11.44,73464.5,-1.07,-23.39,-24.35,0,*52
1508648822.11,21492,11.44,73468.3,-1.07,-23.43,-24.35,0,*5C
1508648823.38,21493,11.44,73472.5,-1.07,-23.23,-24.21,0,*5E
1508648824.66,21494,11.44,73468.8,-1.05,-23.03,-23.99,0,*5D
1508648825.89,21495,11.44,73474.3,-1.07,-23.39,-24.25,0,*57
1508648827.17,21496,11.44,73476.3,-1.05,-23.33,-24.25,0,*5C
1508648828.44,21497,11.44,73482.5,-1.07,-23.23,-24.21,0,*5A
1508648829.65,21498,11.44,73478.0,-1.07,-22.83,-23.75,0,*58
1508648830.85,21499,11.44,73472.0,-1.07,-22.63,-23.59,0,*59
1508648832.08,21500,11.44,73474.0,-1.05,-22.63,-23.59,0,*5A
1508648833.36,21501,11.44,73476.8,-1.05,-23.03,-23.99,0,*50
1508648834.59,21502,11.44,73476.0,-1.03,-22.73,-23.59,0,*5F
1508648835.87,21503,11.44,73472.8,-1.05,-22.73,-23.85,0,*59
1508648837.1,21504,11.44,73474.8,-1.05,-22.93,-23.89,0,*5C
1508648838.36,21505,11.44,73474.0,-1.05,-23.09,-23.99,0,*5E
1508648839.61,21506,11.44,73468.5,-1.05,-23.09,-24.15,0,*5E
1508648840.9,21507,11.44,73468.5,-1.05,-23.19,-24.21,0,*59
1508648842.14,21508,11.44,73470.3,-1.07,-23.53,-24.51,0,*5D
1508648843.36,21509,11.44,73470.5,-1.05,-23.39,-24.35,0,*50
1508648844.62,21510,11.44,73474.8,-1.05,-23.49,-24.31,0,*5B
1508648845.83,21511,11.44,73472.3,-1.07,-23.59,-24.35,0,*5D
1508648847.06,21512,11.44,73474.8,-1.07,-23.65,-24.51,0,*53
1508648848.3,21513,11.44,73474.8,-1.07,-23.53,-24.35,0,*55
1508648849.51,21514,11.44,73478.5,-1.07,-23.59,-24.57,0,*5C
1508648850.72,21515,11.44,73480.5,-1.07,-23.59,-24.51,0,*5B
1508648851.96,21516,11.44,73478.0,-1.07,-23.65,-24.57,0,*51
1508648853.22,21517,11.44,73478.3,-1.07,-23.53,-24.25,0,*50
1508648854.44,21518,11.44,73480.8,-1.07,-23.43,-24.35,0,*5F
1508648855.65,21519,11.44,73476.3,-1.07,-23.59,-24.51,0,*57
1508648856.85,21520,11.44,73478.0,-1.07,-23.39,-24.35,0,*59
1508648858.09,21521,11.44,73478.5,-1.07,-23.53,-24.51,0,*56
1508648859.35,21522,11.44,73480.8,-1.11,-23.53,-24.41,0,*53
1508648860.59,21523,11.44,73480.5,-1.11,-23.53,-24.51,0,*53
1508648861.84,21524,11.44,73484.0,-1.13,-23.65,-24.57,0,*55
1508648863.1,21525,11.44,73484.3,-1.13,-23.65,-24.57,0,*54
1508648864.34,21526,11.44,73482.0,-1.13,-23.59,-24.47,0,*59
1508648865.6,21527,11.44,73482.0,-1.13,-23.13,-24.25,0,*52
1508648866.83,21528,11.44,73486.5,-1.11,-22.93,-23.95,0,*5A
1508648868.04,21529,11.44,73480.3,-1.11,-22.93,-23.89,0,*56
1508648869.28,21530,11.44,73478.5,-1.11,-22.77,-23.79,0,*5B
1508648870.48,21531,11.44,73474.5,-1.11,-23.13,-24.05,0,*55
1508648871.69,21532,11.44,73468.8,-1.11,-23.43,-24.35,0,*50
1508648872.95,21533,11.44,73470.8,-1.13,-23.59,-24.41,0,*5B
1508648874.16,21534,11.44,73482.3,-1.11,-23.59,-24.51,0,*5F
1508648875.39,21535,11.44,73484.5,-1.11,-23.39,-24.41,0,*59
1508648876.6,21536,11.44,73482.0,-1.11,-22.63,-23.43,0,*51
1508648877.81,21537,11.44,73476.3,-1.11,-22.27,-23.13,0,*55
1508648879.05,21538,11.44,73480.5,-1.11,-22.47,-23.43,0,*59
1508648880.32,21539,11.44,73482.3,-1.07,-22.31,-23.23,0,*58
1508648881.58,21540,11.44,73478.5,-1.07,-22.47,-23.53,0,*50
1508648882.86,21541,11.44,73474.8,-1.05,-22.47,-23.53,0,*53
1508648884.12,21542,11.44,73474.0,-1.05,-22.57,-23.33,0,*57
1508648885.37,21543,11.44,73472.3,-1.05,-22.63,-23.69,0,*5E
1508648886.63,21544,11.44,73472.5,-1.05,-22.73,-23.75,0,*55
1508648887.86,21545,11.44,73472.8,-1.03,-22.87,-23.85,0,*56
1508648889.11,21546,11.44,73470.3,-1.01,-22.73,-23.79,0,*5F
1508648890.37,21547,11.44,73472.8,-1.05,-23.03,-24.05,0,*50
1508648891.6,21548,11.44,73472.5,-1.03,-23.23,-24.31,0,*5C
1508648892.84,21549,11.44,73470.5,-1.03,-23.53,-24.47,0,*5B
1508648894.1,21550,11.44,73474.5,-1.01,-23.53,-24.51,0,*56
1508648895.37,21551,11.44,73476.3,-1.05,-23.69,-24.67,0,*5F
1508648896.6,21552,11.44,73476.8,-1.05,-23.59,-24.57,0,*5C
1508648897.84,21553,11.44,73478.0,-1.07,-23.65,-24.57,0,*50